Weather History for Joplin, MO

Change the Weather History Date:

Monday, March 4, 2013

  Actual Average Record
Temperature  
Mean Temperature 55 °F 45 °F  
Max Temperature 68 °F 56 °F 77 °F (1961)
Min Temperature 41 °F 34 °F 0 °F (2002)
Degree Days  
Heating Degree Days 10 20  
Month to date heating degree days 104 82  
Since 1 July heating degree days 3220 3336  
Cooling Degree Days 0 0  
Month to date cooling degree days 0 0  
Year to date cooling degree days 1 1  
Growing Degree Days 4 (Base 50)    
Moisture  
Dew Point 35 °F    
Average Humidity 53    
Maximum Humidity 71    
Minimum Humidity 34    
Precipitation  
Precipitation 0.00 in 0.11 in 1.85 in (1959)
Month to date precipitation T 0.40  
Year to date precipitation 5.15 4.75  
Snow  
Snow 0.00 in - - ()
Month to date snowfall T  
Snow Depth 0.00 in    
Sea Level Pressure  
Sea Level Pressure 29.69 in    
Wind  
Wind Speed 9 mph (ESE)    
Max Wind Speed 21 mph    
Max Gust Speed 74 mph    
Visibility 10 miles    
Events      
T = Trace of Precipitation, MM = Missing Value Source: NWS Daily Summary

Daily Weather History Graph

Daily Weather History Graph

Search for Another Location

Airport:

Trip Planner

Search our weather history database for the weather conditions in past years. The results will help you decide how hot, cold, wet, or windy it might be!

Date:

Astronomy

Mar. 04, 2013 Rise Set
Actual Time 6:44 AM CST 6:15 PM CST
Civil Twilight 6:18 AM CST 6:41 PM CST
Nautical Twilight 5:48 AM CST 7:11 PM CST
Astronomical Twilight 5:18 AM CST 7:41 PM CST
Moon 12:49 AM CST (3/4) 11:03 AM CST (3/4)
Length of Visible Light 12h 22m
Length of Day
11h 30m
Waning Gibbous, 52% of the Moon is Illuminated
Mar 4
Waning Gibbous
Mar 4
Last Quarter
Mar 11
New
Mar 19
First Quarter
Mar 27
Full

Hourly Weather History & Observations

Time (CST) Temp. Windchill Dew Point Humidity Pressure Visibility Wind Dir Wind Speed Gust Speed Precip Events Conditions
12:53 AM 45.0 °F 40.1 °F 28.9 °F 53% 29.72 in 10.0 mi SE 9.2 mph - N/A   Clear
1:53 AM 44.1 °F 38.6 °F 30.0 °F 58% 29.69 in 10.0 mi SE 10.4 mph - N/A   Clear
2:53 AM 45.0 °F 40.6 °F 30.0 °F 56% 29.67 in 10.0 mi SE 8.1 mph - N/A   Clear
3:53 AM 44.1 °F 39.0 °F 30.0 °F 58% 29.65 in 10.0 mi SE 9.2 mph - N/A   Clear
4:53 AM 42.1 °F 37.7 °F 30.9 °F 65% 29.65 in 10.0 mi ESE 6.9 mph - N/A   Clear
5:53 AM 43.0 °F 37.7 °F 30.9 °F 62% 29.65 in 10.0 mi ESE 9.2 mph - N/A   Clear
6:53 AM 43.0 °F 38.2 °F 30.9 °F 62% 29.65 in 10.0 mi SE 8.1 mph - N/A   Clear
7:53 AM 44.1 °F 39.5 °F 32.0 °F 63% 29.67 in 10.0 mi SE 8.1 mph - N/A   Clear
8:53 AM 48.9 °F - 34.0 °F 56% 29.66 in 10.0 mi SE 10.4 mph - N/A   Clear
9:53 AM 55.0 °F - 36.0 °F 49% 29.65 in 10.0 mi SSE 12.7 mph - N/A   Clear
10:53 AM 61.0 °F - 39.0 °F 44% 29.64 in 10.0 mi South 12.7 mph 21.9 mph N/A   Clear
11:53 AM 63.0 °F - 39.0 °F 41% 29.62 in 10.0 mi South 10.4 mph - N/A   Clear
12:53 PM 63.0 °F - 37.9 °F 40% 29.61 in 10.0 mi SSW 4.6 mph - N/A   Clear
1:53 PM 64.9 °F - 39.0 °F 39% 29.59 in 10.0 mi West 4.6 mph - N/A   Clear
2:53 PM 66.9 °F - 37.9 °F 34% 29.60 in 10.0 mi ESE 4.6 mph - N/A   Partly Cloudy
3:53 PM 66.9 °F - 39.9 °F 37% 29.62 in 10.0 mi Variable 3.5 mph - N/A   Overcast
4:53 PM 64.0 °F - 39.9 °F 41% 29.64 in 10.0 mi NNW 8.1 mph - N/A   Overcast
5:53 PM 62.1 °F - 41.0 °F 46% 29.66 in 10.0 mi North 5.8 mph - N/A   Overcast
6:53 PM 55.0 °F - 44.1 °F 67% 29.70 in 10.0 mi North 10.4 mph - N/A   Mostly Cloudy
7:53 PM 48.9 °F - 39.9 °F 71% 29.75 in 10.0 mi NNW 11.5 mph - N/A   Clear
8:53 PM 45.0 °F 39.7 °F 35.1 °F 68% 29.79 in 10.0 mi NNW 10.4 mph - N/A   Clear
9:53 PM 44.1 °F 36.8 °F 34.0 °F 68% 29.85 in 10.0 mi North 16.1 mph - N/A   Mostly Cloudy
10:53 PM 43.0 °F 34.2 °F 32.0 °F 65% 29.90 in 10.0 mi NNW 20.7 mph 73.6 mph N/A   Overcast
11:53 PM 41.0 °F 34.7 °F 32.0 °F 70% 29.93 in 10.0 mi NNW 10.4 mph 28.8 mph 0.00 in   Mostly Cloudy